Amritsar, India

12:36 AM IST on June 27, 2017 (GMT +0530)
Amritsar

Weather History for VIAR - October, 2012

Change the Weather History Date:

Saturday, October 13, 2012

  Actual Average Record
Temperature  
Mean Temperature 77 °F -  
Max Temperature 92 °F 87 °F 93 °F (2000)
Min Temperature 62 °F 62 °F 57 °F (2007)
Cooling Degree Days 12    
Growing Degree Days 27 (Base 50)    
Moisture  
Dew Point 66 °F    
Average Humidity 75    
Maximum Humidity 100    
Minimum Humidity 30    
Precipitation  
Precipitation 0.00 in - - ()
Sea Level Pressure  
Sea Level Pressure 29.85 in    
Wind  
Wind Speed 0 mph ()    
Max Wind Speed 4 mph    
Max Gust Speed -    
Visibility 1.8 miles    
Events      
Averages and records for this station are not official NWS values.
T = Trace of Precipitation, MM = Missing Value Source: Averaged Metar Reports

Daily Weather History Graph

Daily Weather History Graph

Search for Another Location

Airport or City:

Trip Planner

Search our weather history database for the weather conditions in past years. The results will help you decide how hot, cold, wet, or windy it might be!

Date:

Astronomy

Oct. 13, 2012 Rise Set
Actual Time 6:32 AM IST 6:00 PM IST
Civil Twilight 6:07 AM IST 6:25 PM IST
Nautical Twilight 5:39 AM IST 6:53 PM IST
Astronomical Twilight 5:11 AM IST 7:21 PM IST
Moon 3:59 AM IST (10/13) 4:23 PM IST (10/13)
Length of Visible Light 12h 17m
Length of Day
11h 28m
Waning Crescent, 7% of the Moon is Illuminated
Oct 13
Waning Crescent
Oct 15
New
Oct 22
First Quarter
Oct 30
Full
Nov 7
Last Quarter

Hourly Weather History & Observations

Time (IST) Temp. Heat Index Dew Point Humidity Pressure Visibility Wind Dir Wind Speed Gust Speed Precip Events Conditions
12:00 AM 73.4 °F - 69.8 °F 88% 29.83 in 1.9 mi Calm Calm - N/A   Mist
12:30 AM 73.4 °F - 69.8 °F 88% 29.83 in 1.9 mi Calm Calm - N/A   Mist
1:00 AM 71.6 °F - 68.0 °F 88% 29.83 in 1.9 mi Calm Calm - N/A   Mist
2:00 AM 69.8 °F - 68.0 °F 94% 29.83 in 1.9 mi Calm Calm - N/A   Mist
3:00 AM 73.4 °F - 69.8 °F 88% 29.83 in 1.9 mi Calm Calm - N/A   Mist
5:30 AM 64 °F - 64 °F 100% 29.81 in 1 mi Calm Calm - -   Mist
5:30 AM 64.4 °F - 64.4 °F 100% 29.83 in 1.6 mi Calm Calm - N/A   Mist
6:00 AM 64.4 °F - 64.4 °F 100% 29.83 in 1.6 mi Calm Calm - N/A   Mist
6:30 AM 62.6 °F - 62.6 °F 100% 29.83 in 1.2 mi Calm Calm - N/A   Mist
8:00 AM 66.2 °F - 66.2 °F 100% 29.86 in 1.2 mi Calm Calm - N/A   Scattered Clouds
8:30 AM 69 °F - 67 °F 92% 29.86 in 1 mi Calm Calm - -   Mist
8:30 AM 68.0 °F - 68.0 °F 100% 29.89 in 1.2 mi Calm Calm - N/A   Scattered Clouds
11:00 AM 78.8 °F - 66.2 °F 65% 29.92 in 2.5 mi Calm Calm - N/A   Haze
11:30 AM 80.6 °F 81.8 °F 62.6 °F 54% 29.89 in 2.5 mi Calm Calm - N/A   Haze
1:30 PM 87.8 °F 88.5 °F 62.6 °F 43% 29.86 in 2.5 mi West 3.5 mph - N/A   Smoke
2:00 PM 89.6 °F 91.1 °F 64.4 °F 43% 29.86 in 2.5 mi Calm Calm - N/A   Smoke
2:30 PM 91 °F - 63 °F 30% 29.79 in 2 mi 2.3 mph - -   Smoke
3:30 PM 91.4 °F 93.2 °F 64.4 °F 41% 29.83 in 2.5 mi Calm Calm - N/A   Smoke
5:30 PM 86 °F - 62 °F 35% 29.79 in 2 mi Calm Calm - -   Smoke
6:30 PM 80.6 °F 82.3 °F 64.4 °F 58% 29.83 in 1.9 mi Calm Calm - N/A   Haze
7:00 PM 80.6 °F 82.3 °F 64.4 °F 58% 29.83 in 1.9 mi Calm Calm - N/A   Haze
8:30 PM 78 °F - 68 °F 64% 29.83 in 1 mi Calm Calm - -   Haze
9:30 PM 77.0 °F - 68.0 °F 74% 29.86 in 1.9 mi Calm Calm - N/A   Haze
10:00 PM 75.2 °F - 68.0 °F 78% 29.86 in 1.9 mi Calm Calm - N/A   Haze
10:30 PM 75.2 °F - 68.0 °F 78% 29.86 in 1.9 mi Calm Calm - N/A   Haze
11:30 PM 73 °F - 69 °F 82% 29.86 in 1 mi Calm Calm - -   Mist
11:30 PM 73.4 °F - 68.0 °F 83% 29.89 in 1.6 mi Calm Calm - N/A   Partly Cloudy